This is the latest recevied weather packets stored in our database for station/object IU5GBO-13. If no packets are shown the sender has not sent any weather packets the latest 10 day(s).
| Time | Temp. | Humidity | Pressure | Rain* | Wind** | Luminosity | Snow |
|---|---|---|---|---|---|---|---|
| 1777647974 | 22.78° C | 19% | 1022.8 hPa | - | - | - | - |
| 1777647374 | 22.78° C | 19% | 1022.7 hPa | - | - | - | - |
| 1777646775 | 22.78° C | 18% | 1022.9 hPa | - | - | - | - |
| 1777646174 | 22.78° C | 18% | 1023.1 hPa | - | - | - | - |
| 1777645574 | 22.78° C | 18% | 1023.3 hPa | - | - | - | - |
| 1777644974 | 22.78° C | 18% | 1023.3 hPa | - | - | - | - |
| 1777644374 | 22.78° C | 17% | 1023.2 hPa | - | - | - | - |
| 1777643774 | 22.78° C | 17% | 1023.4 hPa | - | - | - | - |
| 1777642574 | 22.78° C | 17% | 1023.4 hPa | - | - | - | - |
| 1777641974 | 22.22° C | 17% | 1023.6 hPa | - | - | - | - |
| 1777641374 | 23.33° C | 17% | 1023.6 hPa | - | - | - | - |
| 1777640774 | 22.22° C | 17% | 1023.8 hPa | - | - | - | - |
| 1777640174 | 22.78° C | 17% | 1023.9 hPa | - | - | - | - |
| 1777639574 | 22.22° C | 17% | 1023.8 hPa | - | - | - | - |
| 1777638974 | 22.22° C | 17% | 1023.9 hPa | - | - | - | - |
| 1777638374 | 22.22° C | 17% | 1024.1 hPa | - | - | - | - |
| 1777637774 | 22.22° C | 18% | 1024 hPa | - | - | - | - |
| 1777637174 | 22.22° C | 17% | 1024.1 hPa | - | - | - | - |
| 1777635974 | 22.22° C | 17% | 1024.2 hPa | - | - | - | - |
| 1777635374 | 22.22° C | 17% | 1024.4 hPa | - | - | - | - |
| 1777634774 | 22.22° C | 18% | 1024.4 hPa | - | - | - | - |
| 1777634174 | 21.67° C | 18% | 1024.5 hPa | - | - | - | - |
| 1777633574 | 22.22° C | 18% | 1024.6 hPa | - | - | - | - |
| 1777632974 | 22.22° C | 17% | 1024.7 hPa | - | - | - | - |
| 1777632374 | 21.67° C | 18% | 1024.7 hPa | - | - | - | - |
* Rain since midnight (hover to see other rain measurements)
** Current wind speed in m/s (hover to see current wind gust speed)